SCP
-0 -1 -0 -0 -0 -0 -0 -0 0 0 1 -0 2 1 1 0 0 0 0 0 0 0 0 0 -0 -0 0 0 0 0 0 0 0 0 0 1 1 0 0 0 0 0 0
-1 -1 -1 -1 -2 -1 -1 -1 -1 -0 -0 0 1 1 1 0 0 0 0 -0 0 -0 0 0 0 0 0 0 0 0 0 0 0 0 0 1 1 1 1 1 0 0 0
-0 -0 -1 -1 -2 -2 -2 -2 -2 -1 -1 -1 -0 0 0 0 0 0 0 0 0 0 0 0 0 0 0 0 0 0 0 1 1 0 0 1 1 1 1 1 1 1 0
-0 -0 -1 -1 -1 -2 -2 -2 -2 -2 -2 -1 -1 -1 -1 -1 -1 -0 0 0 0 0 0 0 0 0 0 0 0 0 1 1 1 1 1 1 1 1 1 1 1 1 1
-0 -1 -1 -1 -1 -1 -1 -1 -2 -2 -2 -2 -1 -1 -2 -2 -1 -1 -1 -0 -0 0 0 1 0 0 0 1 1 1 1 1 2 1 1 1 1 2 1 1 1 1 1
1 -1 -1 -1 -1 -2 -1 -1 -1 -1 -1 -1 -1 -1 -2 -2 -3 -2 -2 -1 -1 -0 0 0 1 0 1 0 1 1 1 1 1 1 1 1 1 1 3 2 1 1 0
1 0 -1 -1 -2 -2 -1 -1 -1 -1 -1 -1 -1 -1 -2 -4 -3 -2 -2 -1 -0 0 1 1 1 2 1 1 0 1 0 1 1 1 1 2 4 3 4 4 4 3 1
2 1 1 1 -1 -1 -1 -0 -0 -0 -1 -1 -1 -0 -1 -2 -2 -1 -1 -1 -1 -1 -0 1 1 1 2 2 2 1 1 1 0 1 2 2 4 6 5 5 6 4 2
1 1 2 2 1 0 0 -0 0 1 1 0 0 -1 -1 -1 -1 0 0 1 1 1 2 2 3 3 2 2 3 2 1 1 1 1 2 4 3 2 4 4 4 1 1
1 1 4 3 3 4 3 3 3 3 2 3 1 1 -0 -0 0 0 0 5 3 3 3 4 3 3 6 2 4 6 5 3 3 2 1 0 0 0 1 3 2 1 0
1 3 4 4 4 5 7 7 6 5 4 2 1 1 1 1 -0 1 0 5 6 5 5 4 6 3 4 2 1 6 6 9 4 4 2 1 1 2 0 1 1 1 1
2 3 5 6 6 5 7 9 9 6 4 3 2 2 2 2 2 3 0 0 4 6 5 5 6 6 1 0 0 3 5 8 9 5 4 2 1 1 1 0 1 1 0
4 5 4 5 4 3 4 6 7 5 4 3 3 3 3 3 4 3 2 0 0 3 7 5 4 5 0 0 0 1 1 9 12 7 6 2 1 1 0 1 0 0 0
4 6 6 6 5 4 5 5 5 5 4 4 4 3 3 4 4 4 2 0 0 0 2 3 5 5 2 0 2 0 6 13 13 10 6 4 2 1 1 1 0 0 0
5 6 6 5 5 4 4 5 4 4 3 4 4 3 4 4 4 4 5 6 4 3 5 8 7 6 7 6 3 1 5 13 12 9 6 2 2 1 0 0 0 0 0
6 5 4 3 4 4 4 4 0 0 0 0 0 2 3 0 0 0 2 4 5 1 3 8 11 11 9 5 2 3 4 7 9 8 4 2 1 0 0 0 0 0 0
5 4 3 2 2 3 2 4 4 0 0 0 0 0 0 0 0 0 0 0 0 0 11 8 8 7 3 3 2 3 3 4 5 5 3 1 1 0 0 0 0 0 0
6 3 10 10 10 13 11 10 12 5 4 3 0 0 0 0 0 0 0 0 0 0 5 5 5 4 3 1 1 1 1 3 4 3 1 0 0 0 0 0 0 0 0
5 7 8 7 5 4 5 4 3 3 2 1 0 0 0 0 0 0 0 0 0 0 0 0 0 0 0 0 0 0 0 0 0 0 0 0 0 0 0 0 0 0 0
3 2 3 3 2 2 2 1 1 1 1 0 0 0 0 0 0 0 0 0 0 0 0 0 0 0 0 0 0 0 0 0 0 0 0 0 0 0 0 0 0 0 0
1 2 1 2 2 2 1 0 0 0 1 1 0 0 0 0 0 0 0 0 0 0 0 0 0 0 0 0 0 0 0 0 0 0 0 0 0 0 0 0 0 0 0
1 2 2 1 2 2 3 2 1 1 0 0 0 0 0 0 0 0 0 0 0 0 0 0 0 0 0 0 0 0 0 0 0 0 0 0 0 -0 0 0 0 0 0
1 2 3 2 1 0 0 0 0 0 0 0 0 0 0 0 0 0 0 0 0 0 0 0 0 0 0 0 0 0 0 0 -0 0 0 -0 0 0 0 0 0 0 0
0 0 1 0 0 0 0 0 0 0 0 0 0 0 0 0 0 0 0 0 0 0 0 0 0 0 0 0 -0 0 0 0 0 0 0 0 0 0 0 0 0 0 0
0 0 0 0 0 0 0 0 0 0 0 0 0 0 0 0 0 0 0 0 0 0 0 0 0 0 0 -0 -0 -0 0 0 0 0 0 0 0 0 0 0 0 0 0
0 0 0 0 0 0 0 0 0 0 0 0 0 0 0 0 0 0 0 0 0 0 0 0 0 0 0 0 0 0 0 0 0 0 0 0 0 0 0 0 0 0 0
Wind_Speed_500mb
87 88 91 90 85 85 87 76 75 68 52 56 41 54 54 47 50 57 56 48 51 52 50 46 46 40 39 31 31 30 27 25 25 20 13 22 22 23 28 32 31 26 20
93 86 91 93 91 88 88 88 82 76 72 70 66 57 64 57 51 56 62 64 58 59 55 56 53 50 48 44 40 37 35 32 30 28 26 17 25 25 25 26 30 19 25
86 86 88 94 95 97 94 91 91 88 85 80 77 80 76 69 61 59 62 63 67 65 64 58 60 62 54 52 58 53 45 41 41 44 39 33 34 35 29 22 21 15 17
86 88 90 91 95 97 97 95 93 95 92 90 87 86 86 82 76 69 67 67 67 68 65 70 66 66 66 60 57 60 56 45 45 48 43 36 34 38 37 31 25 20 21
90 91 94 89 91 92 92 95 97 94 95 92 90 88 87 86 84 80 77 77 74 73 73 79 81 77 71 66 63 60 59 63 54 48 45 42 39 39 48 43 32 22 21
89 96 93 89 88 93 94 95 93 94 94 94 93 92 95 94 92 87 81 81 83 80 80 82 87 86 80 75 72 67 64 67 71 70 55 51 42 38 47 44 35 30 30
83 85 91 92 95 94 94 94 95 100 96 95 97 98 101 102 98 94 90 88 87 87 86 85 86 92 90 87 81 74 71 72 71 64 67 63 55 50 48 41 41 46 46
77 84 81 87 91 95 95 96 98 98 102 102 101 100 102 106 107 104 98 95 98 97 95 90 89 90 94 95 92 90 88 82 82 77 73 68 66 60 60 59 61 59 51
76 82 87 83 91 93 100 100 96 96 99 104 106 107 108 110 113 111 102 100 106 109 107 105 103 98 97 97 95 98 96 93 86 87 79 75 70 66 64 64 53 51 49
62 69 83 85 94 96 97 100 98 96 97 97 104 107 111 117 118 118 112 105 111 117 119 120 119 115 104 97 98 100 103 101 90 83 90 89 84 75 66 63 55 51 43
57 62 67 71 79 91 93 90 94 94 91 89 93 96 100 102 103 105 106 103 114 109 109 113 118 118 105 103 101 104 109 98 94 86 88 87 91 82 74 69 64 58 48
54 63 69 66 69 78 86 86 84 85 85 86 86 88 90 94 93 94 94 97 104 104 102 95 92 89 98 103 106 110 108 104 94 88 85 84 80 83 72 52 58 64 65
53 52 67 66 64 65 68 81 76 75 77 78 81 79 80 76 67 73 80 83 86 96 110 107 89 65 87 90 95 103 109 109 100 102 94 84 84 80 55 44 47 60 65
51 56 59 63 63 63 66 63 72 71 71 76 61 66 64 56 58 57 64 67 67 73 81 87 106 107 102 77 91 100 107 120 122 119 114 84 90 78 64 54 57 57 64
42 48 52 52 51 56 59 47 54 57 57 56 55 52 51 49 48 57 54 57 55 63 65 69 86 99 111 115 120 104 94 120 121 129 115 99 96 82 74 62 69 70 75
32 34 38 38 43 47 44 59 43 49 47 54 51 42 45 54 49 45 49 62 58 51 64 76 84 89 99 99 106 102 115 106 127 125 112 108 103 88 68 76 78 84 80
26 26 31 33 38 39 43 38 55 50 50 42 46 55 65 70 72 72 70 68 70 70 65 64 67 74 85 90 94 103 99 111 128 129 126 118 102 70 82 92 81 80 71
34 29 30 34 21 36 35 35 24 21 32 41 53 55 57 60 64 67 71 77 86 85 71 60 63 65 77 88 86 94 91 102 123 139 136 119 109 76 91 81 81 86 67
25 26 24 25 24 26 26 29 28 28 27 27 29 34 30 31 34 38 44 49 51 46 45 55 62 55 56 59 62 70 78 71 54 36 12 22 32 79 79 80 73 74 65
28 29 18 21 17 12 12 12 13 12 10 7 6 9 14 17 17 21 20 14 9 10 16 17 19 12 21 34 37 26 24 37 19 20 33 44 64 71 72 72 66 65 55
22 33 23 27 24 18 15 12 13 10 5 8 6 13 7 10 22 21 15 5 8 16 15 16 21 23 21 24 30 33 41 43 33 20 34 51 53 59 58 64 58 53 55
23 24 24 25 28 25 22 22 19 16 13 7 6 17 4 6 4 11 16 15 18 29 23 17 17 15 15 17 19 22 29 27 29 32 37 35 41 53 54 50 56 48 44
35 33 31 27 25 24 20 18 10 9 5 15 12 7 6 5 12 11 15 16 14 16 19 14 12 5 10 13 16 22 26 25 23 33 43 47 52 54 52 47 43 48 42
49 43 42 50 42 39 33 34 38 39 37 33 27 24 21 21 21 26 23 25 15 7 8 14 6 14 10 12 20 20 20 26 38 35 45 46 43 46 46 49 47 40 48
43 37 34 37 36 33 37 31 28 24 19 19 18 20 21 20 16 15 12 24 25 21 22 12 12 11 8 15 29 24 26 30 34 43 40 41 38 43 44 45 42 44 43
54 47 43 36 34 35 32 30 25 18 17 11 9 8 11 14 18 17 15 8 4 6 7 10 2 5 9 18 23 23 30 36 36 38 42 38 40 32 40 46 40 44 43
Wind_Direction_500mb
222 223 221 223 223 223 222 222 219 214 215 219 228 236 240 246 228 221 226 223 231 233 240 237 235 225 211 214 242 222 232 236 239 236 248 236 238 241 255 256 261 270 281
223 223 225 225 226 226 226 226 228 226 221 221 222 227 237 243 236 228 228 219 223 239 236 238 238 238 230 216 220 241 235 229 238 234 237 252 255 258 265 276 267 243 255
216 220 222 225 227 230 231 230 231 233 233 231 230 230 236 240 242 240 239 237 226 234 245 242 237 242 242 232 227 227 233 234 233 238 235 239 266 265 264 267 288 268 233
215 219 223 223 226 231 234 237 236 235 238 236 236 236 237 243 246 246 244 245 245 236 241 252 248 243 245 244 238 236 230 237 244 243 246 241 234 252 256 257 272 281 286
213 218 229 232 227 227 231 234 240 239 239 241 240 237 238 242 245 246 244 244 247 248 240 243 251 251 251 249 248 243 238 229 231 239 239 239 231 237 240 252 251 252 255
214 219 222 230 231 229 231 232 233 239 240 239 239 239 238 241 246 247 246 245 247 248 249 246 247 252 253 253 251 248 246 241 232 230 233 237 237 229 239 247 234 220 224
217 220 219 223 226 231 235 233 231 236 238 238 240 239 239 242 243 245 246 245 247 248 250 252 248 249 251 253 253 251 250 244 241 239 234 228 234 235 236 235 226 227 240
217 221 222 222 227 230 233 236 235 233 236 239 240 241 241 243 243 244 247 246 247 248 250 252 252 250 248 249 251 250 249 244 240 239 238 240 236 233 240 237 237 243 247
220 223 226 224 226 229 232 236 236 234 234 236 241 243 243 244 245 246 246 244 246 248 250 252 253 252 251 245 245 253 252 251 247 243 243 247 245 242 242 245 238 246 249
226 229 230 230 229 229 231 233 235 238 238 236 240 243 246 249 250 251 249 244 245 246 247 251 252 254 255 248 241 245 253 256 251 247 241 240 242 245 245 244 243 249 247
242 246 240 238 235 233 231 231 233 234 232 233 237 241 247 251 255 254 250 240 245 242 243 246 248 249 248 250 246 245 256 255 259 253 249 244 239 241 242 243 241 242 234
241 242 245 244 242 233 229 227 229 231 234 234 238 241 246 252 252 255 253 248 246 242 242 248 248 251 255 248 247 248 249 242 244 248 246 242 237 235 231 243 249 241 242
232 235 238 243 241 232 225 225 223 228 231 236 237 240 247 247 253 260 260 262 257 249 250 249 245 255 251 256 257 250 245 238 233 238 239 249 243 238 225 230 241 242 240
238 232 232 234 234 232 222 229 224 225 231 234 235 244 247 251 258 262 257 263 265 261 258 256 254 249 248 251 251 248 244 237 232 232 239 242 242 222 212 227 245 230 222
228 223 223 227 227 224 225 219 229 231 228 234 242 245 243 254 248 248 248 256 262 267 271 268 259 252 249 248 249 252 253 241 231 235 232 227 229 216 216 245 230 223 215
210 215 213 212 218 220 221 214 220 222 228 229 236 230 228 238 243 248 249 235 240 260 268 262 262 257 254 256 256 259 256 249 244 233 223 219 220 207 233 229 225 215 215
201 209 205 204 212 214 207 219 221 222 228 229 238 246 250 255 256 256 257 258 256 259 275 269 268 269 264 264 266 263 264 263 249 235 222 208 212 205 230 221 214 209 214
195 188 182 186 187 167 187 200 184 197 221 229 240 248 253 259 265 269 270 267 267 269 272 265 266 272 273 272 273 273 268 260 244 231 219 199 204 211 212 210 200 198 199
175 168 160 169 169 185 182 187 199 209 220 240 261 269 274 278 280 278 274 270 270 273 269 266 269 276 282 270 261 257 254 249 252 287 166 147 197 202 198 197 188 196 193
183 168 170 191 183 164 160 185 199 196 183 193 271 285 299 301 312 321 320 320 329 289 280 293 280 307 296 286 270 243 281 215 190 281 300 221 206 202 200 194 195 198 197
149 143 138 128 130 128 123 89 109 111 82 76 335 318 351 23 354 14 1 36 75 17 337 323 305 290 275 270 265 269 257 236 264 212 196 205 199 185 184 184 188 201 201
144 140 141 133 124 124 111 117 122 123 118 96 12 324 353 45 83 1 341 344 326 308 312 304 287 288 279 246 246 253 234 221 200 196 202 200 195 182 182 187 194 194 202
120 111 96 94 110 115 109 96 128 160 72 59 60 43 23 345 5 9 322 316 297 290 285 285 297 277 240 211 173 178 185 181 187 177 173 175 179 182 187 189 190 197 200
109 93 88 88 106 98 90 77 62 63 63 64 65 61 53 41 41 55 40 29 36 33 330 248 94 162 211 225 194 177 173 176 165 177 180 181 187 190 190 196 202 204 205
95 97 110 106 98 97 100 91 96 94 80 79 87 89 99 70 49 41 9 16 19 23 25 62 152 191 215 182 171 171 190 193 197 204 189 189 196 205 210 206 208 212 210
89 79 82 86 86 83 84 84 82 81 68 49 54 69 80 95 99 107 99 120 133 87 22 340 263 174 187 184 195 210 209 191 187 190 193 192 200 205 215 209 214 214 214
Wind_Speed_850mb
87 88 91 90 85 85 87 76 75 68 52 56 41 54 54 47 50 57 56 48 51 52 50 46 46 40 39 31 31 30 27 25 25 20 13 22 22 23 28 32 31 26 20
93 86 91 93 91 88 88 88 82 76 72 70 66 57 64 57 51 56 62 64 58 59 55 56 53 50 48 44 40 37 35 32 30 28 26 17 25 25 25 26 30 19 25
86 86 88 94 95 97 94 91 91 88 85 80 77 80 76 69 61 59 62 63 67 65 64 58 60 62 54 52 58 53 45 41 41 44 39 33 34 35 29 22 21 15 17
86 88 90 91 95 97 97 95 93 95 92 90 87 86 86 82 76 69 67 67 67 68 65 70 66 66 66 60 57 60 56 45 45 48 43 36 34 38 37 31 25 20 21
90 91 94 89 91 92 92 95 97 94 95 92 90 88 87 86 84 80 77 77 74 73 73 79 81 77 71 66 63 60 59 63 54 48 45 42 39 39 48 43 32 22 21
89 96 93 89 88 93 94 95 93 94 94 94 93 92 95 94 92 87 81 81 83 80 80 82 87 86 80 75 72 67 64 67 71 70 55 51 42 38 47 44 35 30 30
83 85 91 92 95 94 94 94 95 100 96 95 97 98 101 102 98 94 90 88 87 87 86 85 86 92 90 87 81 74 71 72 71 64 67 63 55 50 48 41 41 46 46
77 84 81 87 91 95 95 96 98 98 102 102 101 100 102 106 107 104 98 95 98 97 95 90 89 90 94 95 92 90 88 82 82 77 73 68 66 60 60 59 61 59 51
76 82 87 83 91 93 100 100 96 96 99 104 106 107 108 110 113 111 102 100 106 109 107 105 103 98 97 97 95 98 96 93 86 87 79 75 70 66 64 64 53 51 49
62 69 83 85 94 96 97 100 98 96 97 97 104 107 111 117 118 118 112 105 111 117 119 120 119 115 104 97 98 100 103 101 90 83 90 89 84 75 66 63 55 51 43
57 62 67 71 79 91 93 90 94 94 91 89 93 96 100 102 103 105 106 103 114 109 109 113 118 118 105 103 101 104 109 98 94 86 88 87 91 82 74 69 64 58 48
54 63 69 66 69 78 86 86 84 85 85 86 86 88 90 94 93 94 94 97 104 104 102 95 92 89 98 103 106 110 108 104 94 88 85 84 80 83 72 52 58 64 65
53 52 67 66 64 65 68 81 76 75 77 78 81 79 80 76 67 73 80 83 86 96 110 107 89 65 87 90 95 103 109 109 100 102 94 84 84 80 55 44 47 60 65
51 56 59 63 63 63 66 63 72 71 71 76 61 66 64 56 58 57 64 67 67 73 81 87 106 107 102 77 91 100 107 120 122 119 114 84 90 78 64 54 57 57 64
42 48 52 52 51 56 59 47 54 57 57 56 55 52 51 49 48 57 54 57 55 63 65 69 86 99 111 115 120 104 94 120 121 129 115 99 96 82 74 62 69 70 75
32 34 38 38 43 47 44 59 43 49 47 54 51 42 45 54 49 45 49 62 58 51 64 76 84 89 99 99 106 102 115 106 127 125 112 108 103 88 68 76 78 84 80
26 26 31 33 38 39 43 38 55 50 50 42 46 55 65 70 72 72 70 68 70 70 65 64 67 74 85 90 94 103 99 111 128 129 126 118 102 70 82 92 81 80 71
34 29 30 34 21 36 35 35 24 21 32 41 53 55 57 60 64 67 71 77 86 85 71 60 63 65 77 88 86 94 91 102 123 139 136 119 109 76 91 81 81 86 67
25 26 24 25 24 26 26 29 28 28 27 27 29 34 30 31 34 38 44 49 51 46 45 55 62 55 56 59 62 70 78 71 54 36 12 22 32 79 79 80 73 74 65
28 29 18 21 17 12 12 12 13 12 10 7 6 9 14 17 17 21 20 14 9 10 16 17 19 12 21 34 37 26 24 37 19 20 33 44 64 71 72 72 66 65 55
22 33 23 27 24 18 15 12 13 10 5 8 6 13 7 10 22 21 15 5 8 16 15 16 21 23 21 24 30 33 41 43 33 20 34 51 53 59 58 64 58 53 55
23 24 24 25 28 25 22 22 19 16 13 7 6 17 4 6 4 11 16 15 18 29 23 17 17 15 15 17 19 22 29 27 29 32 37 35 41 53 54 50 56 48 44
35 33 31 27 25 24 20 18 10 9 5 15 12 7 6 5 12 11 15 16 14 16 19 14 12 5 10 13 16 22 26 25 23 33 43 47 52 54 52 47 43 48 42
49 43 42 50 42 39 33 34 38 39 37 33 27 24 21 21 21 26 23 25 15 7 8 14 6 14 10 12 20 20 20 26 38 35 45 46 43 46 46 49 47 40 48
43 37 34 37 36 33 37 31 28 24 19 19 18 20 21 20 16 15 12 24 25 21 22 12 12 11 8 15 29 24 26 30 34 43 40 41 38 43 44 45 42 44 43
54 47 43 36 34 35 32 30 25 18 17 11 9 8 11 14 18 17 15 8 4 6 7 10 2 5 9 18 23 23 30 36 36 38 42 38 40 32 40 46 40 44 43
Wind_Direction_850mb
222 223 221 223 223 223 222 222 219 214 215 219 228 236 240 246 228 221 226 223 231 233 240 237 235 225 211 214 242 222 232 236 239 236 248 236 238 241 255 256 261 270 281
223 223 225 225 226 226 226 226 228 226 221 221 222 227 237 243 236 228 228 219 223 239 236 238 238 238 230 216 220 241 235 229 238 234 237 252 255 258 265 276 267 243 255
216 220 222 225 227 230 231 230 231 233 233 231 230 230 236 240 242 240 239 237 226 234 245 242 237 242 242 232 227 227 233 234 233 238 235 239 266 265 264 267 288 268 233
215 219 223 223 226 231 234 237 236 235 238 236 236 236 237 243 246 246 244 245 245 236 241 252 248 243 245 244 238 236 230 237 244 243 246 241 234 252 256 257 272 281 286
213 218 229 232 227 227 231 234 240 239 239 241 240 237 238 242 245 246 244 244 247 248 240 243 251 251 251 249 248 243 238 229 231 239 239 239 231 237 240 252 251 252 255
214 219 222 230 231 229 231 232 233 239 240 239 239 239 238 241 246 247 246 245 247 248 249 246 247 252 253 253 251 248 246 241 232 230 233 237 237 229 239 247 234 220 224
217 220 219 223 226 231 235 233 231 236 238 238 240 239 239 242 243 245 246 245 247 248 250 252 248 249 251 253 253 251 250 244 241 239 234 228 234 235 236 235 226 227 240
217 221 222 222 227 230 233 236 235 233 236 239 240 241 241 243 243 244 247 246 247 248 250 252 252 250 248 249 251 250 249 244 240 239 238 240 236 233 240 237 237 243 247
220 223 226 224 226 229 232 236 236 234 234 236 241 243 243 244 245 246 246 244 246 248 250 252 253 252 251 245 245 253 252 251 247 243 243 247 245 242 242 245 238 246 249
226 229 230 230 229 229 231 233 235 238 238 236 240 243 246 249 250 251 249 244 245 246 247 251 252 254 255 248 241 245 253 256 251 247 241 240 242 245 245 244 243 249 247
242 246 240 238 235 233 231 231 233 234 232 233 237 241 247 251 255 254 250 240 245 242 243 246 248 249 248 250 246 245 256 255 259 253 249 244 239 241 242 243 241 242 234
241 242 245 244 242 233 229 227 229 231 234 234 238 241 246 252 252 255 253 248 246 242 242 248 248 251 255 248 247 248 249 242 244 248 246 242 237 235 231 243 249 241 242
232 235 238 243 241 232 225 225 223 228 231 236 237 240 247 247 253 260 260 262 257 249 250 249 245 255 251 256 257 250 245 238 233 238 239 249 243 238 225 230 241 242 240
238 232 232 234 234 232 222 229 224 225 231 234 235 244 247 251 258 262 257 263 265 261 258 256 254 249 248 251 251 248 244 237 232 232 239 242 242 222 212 227 245 230 222
228 223 223 227 227 224 225 219 229 231 228 234 242 245 243 254 248 248 248 256 262 267 271 268 259 252 249 248 249 252 253 241 231 235 232 227 229 216 216 245 230 223 215
210 215 213 212 218 220 221 214 220 222 228 229 236 230 228 238 243 248 249 235 240 260 268 262 262 257 254 256 256 259 256 249 244 233 223 219 220 207 233 229 225 215 215
201 209 205 204 212 214 207 219 221 222 228 229 238 246 250 255 256 256 257 258 256 259 275 269 268 269 264 264 266 263 264 263 249 235 222 208 212 205 230 221 214 209 214
195 188 182 186 187 167 187 200 184 197 221 229 240 248 253 259 265 269 270 267 267 269 272 265 266 272 273 272 273 273 268 260 244 231 219 199 204 211 212 210 200 198 199
175 168 160 169 169 185 182 187 199 209 220 240 261 269 274 278 280 278 274 270 270 273 269 266 269 276 282 270 261 257 254 249 252 287 166 147 197 202 198 197 188 196 193
183 168 170 191 183 164 160 185 199 196 183 193 271 285 299 301 312 321 320 320 329 289 280 293 280 307 296 286 270 243 281 215 190 281 300 221 206 202 200 194 195 198 197
149 143 138 128 130 128 123 89 109 111 82 76 335 318 351 23 354 14 1 36 75 17 337 323 305 290 275 270 265 269 257 236 264 212 196 205 199 185 184 184 188 201 201
144 140 141 133 124 124 111 117 122 123 118 96 12 324 353 45 83 1 341 344 326 308 312 304 287 288 279 246 246 253 234 221 200 196 202 200 195 182 182 187 194 194 202
120 111 96 94 110 115 109 96 128 160 72 59 60 43 23 345 5 9 322 316 297 290 285 285 297 277 240 211 173 178 185 181 187 177 173 175 179 182 187 189 190 197 200
109 93 88 88 106 98 90 77 62 63 63 64 65 61 53 41 41 55 40 29 36 33 330 248 94 162 211 225 194 177 173 176 165 177 180 181 187 190 190 196 202 204 205
95 97 110 106 98 97 100 91 96 94 80 79 87 89 99 70 49 41 9 16 19 23 25 62 152 191 215 182 171 171 190 193 197 204 189 189 196 205 210 206 208 212 210
89 79 82 86 86 83 84 84 82 81 68 49 54 69 80 95 99 107 99 120 133 87 22 340 263 174 187 184 195 210 209 191 187 190 193 192 200 205 215 209 214 214 214